Regional Weather Roundup
Issued by NWS

Home | Current Version | Previous Version | Graphics & Text | Print | Product List | Glossary On
Versions: 1 2 3 4 5 6 7 8 9 10 11 12 13 14 15 16 17 18 19 20 21 22 23 24 25 26 27 28 29 30 31 32 33 34 35 36 37 38 39 40 41 42 43 44 45 46 47 48 49 50
000
ASUS44 KMEG 290200
RWRTN
TENNESSEE HOURLY STATE WEATHER ROUNDUP
NATIONAL WEATHER SERVICE MEMPHIS TN
900 PM CDT TUE MAR 28 2017

TNZ002-004-019-021-049-052-054-088>092-290300-
WEST TENNESSEE

CITY           SKY/WX    TMP DP  RH WIND       PRES   REMARKS
MEMPHIS INTL   CLEAR     70  55  59 NE12      29.96R
NWS MEMPHIS      N/A     67 N/A N/A MISG        N/A
JACKSON        CLEAR     64  55  72 NE9       30.00R
DYERSBURG      CLEAR     61  54  77 NE9       30.02R
PARIS          CLEAR     55  52  88 NE7       30.04R
$$

TNZ008-025-027-028-033-062-065-066-290300-
NORTH MIDDLE TENNESSEE

CITY           SKY/WX    TMP DP  RH WIND       PRES   REMARKS
NASHVILLE      CLEAR     60  54  80 N9        30.05R
CLARKSVILLE    CLEAR     56  52  86 NE7       30.05R FOG
SMYRNA         CLEAR     61  54  77 NE7       30.06R
CROSSVILLE     CLOUDY    59  47  64 N5        30.07R
$$

TNZ061-075-076-078-094-096-097-290300-
SOUTH MIDDLE TENNESSEE

CITY           SKY/WX    TMP DP  RH WIND       PRES   REMARKS
TULLAHOMA      CLEAR     61  52  72 NE3         N/A
WINCHESTER     CLEAR     59  54  82 NE5       30.03R
COLUMBIA       CLEAR     64  55  72 NE6       30.01R
SHELBYVILLE    CLEAR     63  54  72 NE6       30.04R
$$

TNZ017-018-042-046-047-290300-
NORTHEAST TENNESSEE

CITY           SKY/WX    TMP DP  RH WIND       PRES   REMARKS
TRI CITIES     CLOUDY    61  51  70 CALM      30.05R
$$

TNZ012-013-036-069-073-074-290300-
CENTRAL EAST TENNESSEE

CITY           SKY/WX    TMP DP  RH WIND       PRES   REMARKS
KNOXVILLE      PTCLDY    64  50  60 N12       30.03R
OAK RIDGE      CLEAR     62  49  62 CALM      30.05R
GATLINBURG     MOCLDY    63  52  67 NW7       30.03R
$$

TNZ083-085-099-290300-
SOUTHEAST TENNESSEE

CITY           SKY/WX    TMP DP  RH WIND       PRES   REMARKS
CHATTANOOGA    CLEAR     66  51  58 N8        30.02R
$$

SKY/WX REPORTED AS FAIR MEANS FEW OR NO CLOUDS BELOW
12 THOUSAND FEET.





USA.gov is the U.S. government's official web portal to all federal, state and local government web resources and services.